Anchorage Merrill, AK

3:41 PM AKDT on May 27, 2017 (GMT -0800)
Merrill

Weather History for PAMR - January, 2013

Change the Weather History Date:

Tuesday, January 1, 2013

  Actual Average Record
Temperature  
Mean Temperature 38 °F -  
Max Temperature 43 °F 18 °F 48 °F (2011)
Min Temperature 33 °F 6 °F -13 °F (1997)
Degree Days  
Heating Degree Days 27    
Moisture  
Dew Point 29 °F    
Average Humidity 78    
Maximum Humidity 89    
Minimum Humidity 55    
Precipitation  
Precipitation 0.00 in - - ()
Sea Level Pressure  
Sea Level Pressure 29.33 in    
Wind  
Wind Speed 7 mph (WNW)    
Max Wind Speed 12 mph    
Max Gust Speed 26 mph    
Visibility 10 miles    
Events      
Averages and records for this station are not official NWS values.
T = Trace of Precipitation, MM = Missing Value Source: NWS Daily Summary

Daily Weather History Graph

Daily Weather History Graph

Search for Another Location

Airport or City:

Trip Planner

Search our weather history database for the weather conditions in past years. The results will help you decide how hot, cold, wet, or windy it might be!

Date:

Astronomy

Jan. 01, 2013 Rise Set
Actual Time 10:13 AM AKST 3:53 PM AKST
Civil Twilight 9:12 AM AKST 4:54 PM AKST
Nautical Twilight 8:13 AM AKST 5:53 PM AKST
Astronomical Twilight 7:20 AM AKST 6:46 PM AKST
Moon 10:09 PM AKST (1/1) 11:03 AM AKST (1/1)
Length of Visible Light 7h 41m
Length of Day
5h 40m
Waning Gibbous, 82% of the Moon is Illuminated
Jan 1
Waning Gibbous
Jan 4
Last Quarter
Jan 11
New
Jan 18
First Quarter
Jan 26
Full

Hourly Weather History & Observations

Time (AKST) Temp. Windchill Dew Point Humidity Pressure Visibility Wind Dir Wind Speed Gust Speed Precip Events Conditions
12:53 AM 43.0 °F 37.7 °F 28.0 °F 56% 29.54 in 10.0 mi ESE 9.2 mph 20.7 mph N/A   Overcast
1:53 AM 37.0 °F 30.4 °F 28.9 °F 73% 29.52 in 10.0 mi West 9.2 mph - N/A   Mostly Cloudy
2:37 AM 37.4 °F 29.8 °F 28.4 °F 70% 29.47 in 10.0 mi West 11.5 mph 26.5 mph N/A   Mostly Cloudy
3:53 AM 37.0 °F 30.4 °F 28.0 °F 70% 29.47 in 10.0 mi West 9.2 mph - N/A   Overcast
4:53 AM 41.0 °F 35.2 °F 26.1 °F 55% 29.44 in 10.0 mi West 9.2 mph - N/A   Overcast
5:53 AM 39.0 °F 32.8 °F 27.0 °F 62% 29.44 in 10.0 mi SW 9.2 mph - N/A   Overcast
6:53 AM 39.0 °F - 27.0 °F 62% 29.40 in 10.0 mi Calm Calm - N/A   Scattered Clouds
7:53 AM 37.9 °F 31.5 °F 28.9 °F 70% 29.37 in 10.0 mi NW 9.2 mph - N/A   Overcast
8:53 AM 36.0 °F 30.3 °F 30.9 °F 82% 29.37 in 10.0 mi WNW 6.9 mph - N/A   Mostly Cloudy
9:53 AM 35.1 °F 29.3 °F 30.9 °F 85% 29.37 in 10.0 mi WNW 6.9 mph - N/A   Mostly Cloudy
10:53 AM 34.0 °F 31.0 °F 30.9 °F 89% 29.37 in 10.0 mi WSW 3.5 mph - N/A   Mostly Cloudy
11:53 AM 34.0 °F 29.8 °F 30.9 °F 89% 29.34 in 10.0 mi WSW 4.6 mph - N/A   Mostly Cloudy
12:53 PM 34.0 °F 28.8 °F 30.9 °F 89% 29.29 in 10.0 mi WNW 5.8 mph - N/A   Overcast
1:53 PM 34.0 °F 28.8 °F 30.9 °F 89% 29.26 in 10.0 mi West 5.8 mph - N/A   Mostly Cloudy
2:53 PM 34.0 °F - 30.9 °F 89% 29.25 in 10.0 mi Calm Calm - 0.00 in   Mostly Cloudy
3:53 PM 35.1 °F - 30.9 °F 85% 29.24 in 10.0 mi Calm Calm - N/A   Mostly Cloudy
4:53 PM 35.1 °F - 30.9 °F 85% 29.22 in 10.0 mi Calm Calm - N/A   Overcast
5:53 PM 36.0 °F 29.0 °F 32.0 °F 86% 29.21 in 10.0 mi North 9.2 mph - N/A   Overcast
6:53 PM 35.1 °F 30.1 °F 30.0 °F 82% 29.20 in 10.0 mi NNE 5.8 mph - N/A   Overcast
7:53 PM 34.0 °F 28.8 °F 30.0 °F 85% 29.19 in 10.0 mi East 5.8 mph - N/A   Overcast
8:53 PM 34.0 °F - 30.0 °F 85% 29.20 in 10.0 mi Calm Calm - N/A   Overcast
9:53 PM 33.1 °F 27.7 °F 30.0 °F 89% 29.23 in 10.0 mi NNW 5.8 mph - N/A   Overcast
10:53 PM 35.1 °F - 27.0 °F 72% 29.24 in 10.0 mi Calm Calm - N/A   Overcast
11:53 PM 35.1 °F 30.1 °F 28.0 °F 76% 29.25 in 10.0 mi NW 5.8 mph - N/A   Overcast